Overview Statistics Trail Chart Weather Telemetry Raw packets
 

This is the latest recevied weather packets stored in our database for station/object SV9TNF-56. If no packets are shown the sender has not sent any weather packets the latest 10 day(s).

<< 78 79 80 81 82 83 84 >>
Time Temp. Humidity Pressure Rain* Wind** Luminosity Snow
1788099742 26.67° C 53% 1018.3 hPa 0 mm 6.26 m/s, 138° - -
1788099441 26.67° C 57% 1018.3 hPa 0 mm 9.83 m/s, 126° - -
1788099142 26.67° C 56% 1018.3 hPa 0 mm 4.92 m/s, 96° - -
1788098841 26.67° C 54% 1018.3 hPa 0 mm 13.86 m/s, 138° - -
1788098541 26.67° C 51% 1018.3 hPa 0 mm 14.75 m/s, 109° - -
1788098241 26.67° C 52% 1018.3 hPa 0 mm 16.09 m/s, 120° - -
1788097941 26.67° C 51% 1018.3 hPa 0 mm 4.92 m/s, 138° - -
1788097641 26.67° C 57% 1018.3 hPa 0 mm 6.26 m/s, 97° - -
1788097341 26.67° C 57% 1018.3 hPa 0 mm 12.52 m/s, 120° - -
1788097041 26.11° C 56% 1018.3 hPa 0 mm 6.71 m/s, 114° - -
1788096740 27.22° C 54% 1018.3 hPa 0 mm 12.52 m/s, 150° - -
1788096440 26.67° C 55% 1018.6 hPa 0 mm 12.96 m/s, 152° - -
1788096140 26.67° C 56% 1018.6 hPa 0 mm 6.26 m/s, 168° - -
1788095840 26.67° C 54% 1018.6 hPa 0 mm 6.26 m/s, 191° - -
1788095540 26.67° C 55% 1019 hPa 0 mm 8.05 m/s, 175° - -
1788095240 26.67° C 54% 1018.6 hPa 0 mm 12.96 m/s, 120° - -
1788094940 26.67° C 53% 1018.6 hPa 0 mm 5.36 m/s, 193° - -
1788094640 26.67° C 54% 1018.6 hPa 0 mm 12.52 m/s, 228° - -
1788094340 26.11° C 57% 1018.6 hPa 0 mm 8.05 m/s, 104° - -
1788094039 26.67° C 56% 1018.6 hPa 0 mm 14.31 m/s, 58° - -
1788093740 26.67° C 54% 1018.6 hPa 0 mm 7.15 m/s, 296° - -
1788093439 27.22° C 52% 1018.6 hPa 0 mm 11.18 m/s, 139° - -
1788093139 27.22° C 48% 1018.6 hPa 0 mm 8.05 m/s, 202° - -
1788092840 26.67° C 51% 1018.6 hPa 0 mm 13.86 m/s, 249° - -
1788092539 26.67° C 53% 1018.6 hPa 0 mm 5.36 m/s, 146° - -

* Rain latest hour (hover to see other rain measurements)
** Current wind speed in m/s (hover to see current wind gust speed)